Location: Newark
(25.0000°N, 73.5000°E)
Time: 19:38:23
(UTC+00:00)

S-56A Canister/Altair - Visible Passes

Search period start: 28 February 2021 00:00
Search period end: 10 March 2021 00:00
Orbit: 632 x 2501 km, 38.9° (Epoch: 28 February)

Date Brightness Start Highest point End Pass type
(mag) Time Alt. Az. Time Alt. Az. Time Alt. Az.
28 Feb 10.0 13:44:38 10° WNW 13:58:33 49° NNE 14:07:07 17° E visible
28 Feb 9.1 15:52:50 10° WNW 16:04:34 76° NW 16:04:34 76° NW visible
28 Feb 11.3 18:01:46 10° WNW 18:02:00 11° W 18:02:00 11° W visible
01 Mar 10.2 13:10:39 10° WNW 13:24:52 48° N 13:35:51 10° E visible
01 Mar 9.0 15:18:57 10° WNW 15:32:27 81° NNE 15:33:52 70° E visible
01 Mar 10.9 17:27:35 10° WNW 17:31:19 20° W 17:31:19 20° W visible
02 Mar 9.3 14:45:06 10° WNW 14:59:09 74° NNE 15:03:15 44° ESE visible
02 Mar 10.3 16:53:28 10° WNW 17:00:42 32° W 17:00:42 32° W visible
03 Mar 9.6 14:11:14 10° WNW 14:25:42 69° NNE 14:32:41 26° ESE visible
03 Mar 9.8 16:19:25 10° WNW 16:30:09 46° WSW 16:30:09 46° WSW visible
04 Mar 9.8 13:37:24 10° WNW 13:52:10 65° NNE 14:02:11 14° ESE visible
04 Mar 9.5 15:45:25 10° WNW 15:58:12 56° SW 15:59:39 53° SSW visible
05 Mar 9.6 15:11:28 10° WNW 15:25:06 65° SW 15:29:13 41° SSE visible
05 Mar 11.1 17:23:09 10° W 17:26:41 14° WSW 17:26:41 14° WSW visible
06 Mar 9.6 14:37:33 10° WNW 14:51:53 73° SW 14:58:51 26° SE visible
06 Mar 10.8 16:48:01 10° W 16:55:46 20° SW 16:56:20 20° SW visible
07 Mar 9.7 14:03:42 10° WNW 14:18:33 81° SW 14:28:34 14° SE visible
07 Mar 10.6 16:13:20 10° W 16:22:56 25° SW 16:26:03 22° SSW visible
08 Mar 9.9 13:29:54 10° WNW 13:45:06 88° SW 13:56:40 10° SE visible
08 Mar 10.6 15:38:53 10° WNW 15:50:01 31° SW 15:55:50 19° S visible
09 Mar 10.6 15:04:37 10° WNW 15:16:59 37° SW 15:25:39 13° SSE visible
